Location: Astronomy Club of Akron Observatory
(40.9700°N, 81.5606°W)
Time: 00:14:36
(UTC-04:00)

ISS - Pass Details

Date: 18 July 2018
Orbit: 402 x 408 km, 51.6° (Epoch: 21 July)

Event Time Altitude Azimuth Distance (km) Brightness Sun altitude
Rises 04:09:47 0° 311° (NW) 2,332 0.1 -18.1°
Reaches altitude 10° 04:12:12 10° 328° (NNW) 1,471 -0.8 -17.8°
Maximum altitude 04:14:49 21° 20° (NNE) 969 -1.1 -17.5°
Drops below altitude 10° 04:17:26 10° 73° (ENE) 1,469 -0.1 -17.2°
Sets 04:19:50 0° 90° (E) 2,328 0.6 -16.9°
